KFATKIFP

Guest
Details From KFAT - Fresno Air Terminal
To KIFP - Laughlin Bullhead Intl
Flight Number -
Tags generated
Created
Modified
Stats Distance 277 nm / 512 km
Max Altitude 35,000 ft / 10,668 m
Waypoints 5
Social Downloads 0
Likes 0
Share VATSIM

Download

Looking for another format? Having issues loading an existing format? Contact us
Advertisement - Login to hide

Notes

Basic altitude profile: - Ascent Rate: 2500ft/min - Ascent Speed: 250kts - Cruise Altitude: 35000ft - Cruise Speed: 420kts - Descent Rate: 1500ft/min - Descent Speed: 250kts Options: - Use NATs: yes - Use PACOTS: no - Use low airways: yes - Use high airways: yes

Route

KFAT MITEL J110 SHADO KIFP

ID Type Via Altitude Latitude Longitude Leg Dist Tot Dist Heading (true) Name
O KFAT APT - 0 ft / 0 m 36.77651˚ -119.71897˚ - 0 nm - Fresno Air Terminal
MITEL FIX - 19,600 ft / 5,974 m 36.68442˚ -118.58408˚ 54 nm 54 nm 95° / 96° -
FURNY FIX J110 (AWY-HI) 35,000 ft / 10,668 m 36.49013˚ -117.46168˚ 55 nm 110 nm 102° / 103° -
SHADO FIX J110 (AWY-HI) 29,000 ft / 8,839 m 36.26374˚ -116.23077˚ 61 nm 171 nm 103° / 103° -
O KIFP APT - 0 ft / 0 m 35.15599˚ -114.55944˚ 105 nm 276 nm 129° / 130° Laughlin Bullhead Intl

Altitude Profile

Advertisement - Login to hide

Weather


0- 5 10 15 20 25 30 35+ Temperature / ° C

Clouds and Precipitation
Forecast for 2018-05-22 18:00 UTC. Updated 4 hours ago

Ground ~20,000 ft ~40,000 ft Winds

KFAT

Details ICAO KFAT (FAT)
Name Fresno Air Terminal
Region United States
Timezone America/Los_Angeles (UTC-7.0)
Stats Elevation 335 ft / 102 m (AMSL)
Location 36.776514° -119.718966°
Runways 2
Magnetic Variation 12.790° E

METAR

KFAT 222053Z 29008KT 10SM SCT070 28/10 A2981 RMK AO2 SLP090 HZ DSNT ALQDS T02780100 58015

Decode

TAF

KFAT 221735Z 2218/2318 30007KT P6SM FEW070 FEW120

Decode

Departure Runways

ID Width Length Bearing (true) Bearing (mag) Surface Threshold Offset Overrun Length
11L 150 ft / 46 m 9,242 ft / 2,817 m 125.47° 112.68° Asphalt 0 ft / 0 m 1,066 ft / 325 m
11R 150 ft / 46 m 8,010 ft / 2,441 m 125.49° 112.70° Asphalt 0 ft / 0 m 1,001 ft / 305 m
29L 150 ft / 46 m 8,010 ft / 2,441 m 305.50° 292.71° Asphalt 0 ft / 0 m 1,001 ft / 305 m
29R 150 ft / 46 m 9,242 ft / 2,817 m 305.49° 292.70° Asphalt 312 ft / 95 m 850 ft / 259 m

KIFP

Details ICAO KIFP
Name Laughlin Bullhead Intl
Region United States
Timezone America/Phoenix (UTC-7.0)
Stats Elevation 701 ft / 214 m (AMSL)
Location 35.155985° -114.559436°
Runways 1
Magnetic Variation 11.293° E

METAR

KIFP 222047Z 19013G20KT 20SM SCK120 SCT 200 32/01 A2972

Decode

TAF

TAF KIFP 221720Z 2218/2318 19011KT P6SM SCT100 SCT150 FM230300 16007KT P6SM FEW100 FM231500 20010KT P6SM SKC

Decode

Destination Runways

ID Width Length Bearing (true) Bearing (mag) Surface Threshold Offset Overrun Length
16 151 ft / 46 m 7,518 ft / 2,292 m 176.47° 165.18° Asphalt 0 ft / 0 m 699 ft / 213 m
34 151 ft / 46 m 7,518 ft / 2,292 m 356.47° 345.18° Asphalt 0 ft / 0 m 200 ft / 61 m

Popular Alternatives